sat.trackr.live / text

‹ back to catalog

KUIPER-00405

NORAD 68923 · 2026-098E

PAYLOAD ACTIVE UNKNOWN

§ Identity

Operator
Country
US
Launch date
2026-04-30
Launch site
FRGUI
Launch vehicle
Mass (kg)
RCS (m²)

External: N2YO · Heavens-Above · Gunter

§ Orbital elements

Epoch: 2026-05-25T02:03:44.690688Z

Period
93.99 min
Inclination
51.8766°
Eccentricity
0.0015164
Mean motion
15.32063343 rev/d
Perigee alt
459.3 km
Apogee alt
480.0 km
Semi-major
6,847.8 km
B*
5.0481e-4
RAAN
179.4219°
Arg perigee
66.7354°
Mean anomaly
293.5225°
Rev number
379

§ Raw data

KUIPER-004051 68923U 26098E   26145.08593392  .00015571  00000+0  50481-3 0  99992 68923  51.8766 179.4219 0015164  66.7354 293.5225 15.32063343  3791

JSON: /api/v1/satellites/68923 · /tle

For live sub-satellite position, see the globe view (requires WebGL).

§ Visibility from observer

Set your observer location to see the next 7 days of passes ≥ 10°. The values pass through the URL so the page stays shareable.

No JS? Fill the form by hand. The geolocation button needs JavaScript.